Hourly Data Report for November 20, 2017

All times are specified in Local Standard Time (LST). Add 1 hour to adjust for Daylight Saving Time where and when it is observed.

GREENWOOD A
NOVA SCOTIA

44°59'00.000" N
64°55'00.000" W
28.00 m
8202000
71397
YZX

Download Data

Hourly Data (November 2017)
Hourly Data Report for November 20, 2017
Temp Definition
°C
Dew Point Temp Definition
°C
Rel Hum Definition
%
Wind Dir Definition
10's deg

Wind Spd Definition
km/h
Visibility Definition
km
Stn Press Definition
kPa
Hmdx Definition


Wind Chill Definition


Weather Definition


TIME
00:00 5.5 2.9 83 26 33 9.7 98.91     Fog
01:00 5.0 1.6 79 25 32 24.1 99.01     Rain Showers
02:00 4.0 -2.5 63 26 28 24.1 99.17     Cloudy
03:00 3.2 -3.9 60 27 28 24.1 99.32     Cloudy
04:00 2.7 -3.3 65 27 41 24.1 99.38     Mostly Cloudy
05:00 2.2 -3.7 65 28 24 24.1 99.45     Cloudy
06:00 2.1 -3.4 67 27 20 24.1 99.49     Cloudy
07:00 2.1 -0.6 82 26 24 24.1 99.58     Snow Showers
08:00 1.9 -1.6 78 25 26 6.4 99.69     Snow Showers
09:00 0.5 -1.4 87 26 19 8.0 99.79     Snow Showers
10:00 0.9 -1.5 84 23 17 8.0 99.82     Snow Showers
11:00 1.1 -1.8 81 23 17 6.4 99.82     Snow Showers
12:00 1.5 -2.1 77 23 26 6.4 99.79     Snow Showers
13:00 1.4 -2.8 74 27 41 24.1 99.84     Mostly Cloudy
14:00 1.4 -3.4 70 27 28 24.1 99.88     Mostly Cloudy
15:00 1.6 -3.4 69 28 26 24.1 99.98     Mostly Cloudy
16:00 1.2 -3.9 69 26 30 9.7 100.07     Snow Showers
17:00 0.0 -2.9 81 24 19 12.9 100.14   -5 Snow Showers
18:00 -0.6 -2.5 87 26 30 4.8 100.22   -7 Snow Showers
19:00 -1.3 -2.5 92 27 32 9.7 100.27   -8 Snow Showers
20:00 -0.7 -2.9 85 29 35 9.7 100.38   -8 Snow Showers
21:00 -1.5 -3.3 88 29 35 16.1 100.52   -9 Mostly Cloudy
22:00 -2.0 -6.4 72 29 30 16.1 100.61   -9 Snow Showers
23:00 -2.6 -8.2 65 27 33 19.3 100.73   -10 Snow Showers

Notes on Data Quality.

Legend

  • E = Estimated
  • M = Missing
  • NA = Not Available
  • ‡ = Partner data that is not subject to review by the National Climate Archives
Date modified: